When you browse on this site, cookies collect data to enhance your experience and personalize the content and advertising you see.
Visit our Privacy Policy to learn more. By continuing to use the site, you agree to this use of cookies and data.
  • In Czech Republic
  • List of Countries
  • For 7 days
  • Water Temperature
  • Satellite Maps
  • Weather Map
  • Weather Widgets
  • user-avatar
    Login

    Hourly Weather Dolzhanka

    Today, 25 May, Saturday

    Time Temperature Precipitation Wind Pressure Humidity
    00:00 +16°C° 0 mm 1 mps 742 mmHg 88%
    01:00 +16°C° 0 mm 1 mps 742 mmHg 89%
    02:00 +16°C° 0 mm 1 mps 742 mmHg 91%
    03:00 +15°C° 0 mm 1 mps 742 mmHg 91%
    04:00 +15°C° 0 mm 1 mps 742 mmHg 92%
    05:00 +15°C° 0 mm 1 mps 742 mmHg 92%
    06:00 +18°C° 0 mm 1 mps 742 mmHg 87%
    07:00 +19°C° 0 mm 1 mps 742 mmHg 82%
    08:00 +21°C° 0 mm 1 mps 742 mmHg 77%
    09:00 +21°C° 0.2 mm 2 mps 742 mmHg 70%
    10:00 +23°C° 0.2 mm 2 mps 742 mmHg 63%
    11:00 +25°C° 0.2 mm 3 mps 742 mmHg 57%
    12:00 +24°C° 1.3 mm 3 mps 741 mmHg 60%
    13:00 +24°C° 1.3 mm 3 mps 741 mmHg 63%
    14:00 +24°C° 1.3 mm 2 mps 741 mmHg 66%
    15:00 +24°C° 0.2 mm 3 mps 741 mmHg 65%
    16:00 +22°C° 0.2 mm 3 mps 741 mmHg 65%
    17:00 +22°C° 0.2 mm 4 mps 741 mmHg 64%
    18:00 +20°C° 0 mm 3 mps 741 mmHg 70%
    19:00 +19°C° 0 mm 2 mps 741 mmHg 76%
    20:00 +18°C° 0 mm 1 mps 741 mmHg 82%
    21:00 +16°C° 0 mm 2 mps 741 mmHg 83%
    22:00 +15°C° 0 mm 2 mps 741 mmHg 84%
    23:00 +13°C° 0 mm 3 mps 741 mmHg 84%

    Tomorrow, 26 May, Sunday

    Time Temperature Precipitation Wind Pressure Humidity
    00:00 +13°C° 0 mm 3 mps 742 mmHg 87%
    01:00 +13°C° 0 mm 2 mps 742 mmHg 89%
    02:00 +13°C° 0 mm 2 mps 742 mmHg 92%
    03:00 +12°C° 0 mm 2 mps 742 mmHg 91%
    04:00 +12°C° 0 mm 2 mps 743 mmHg 91%
    05:00 +12°C° 0 mm 2 mps 743 mmHg 90%
    06:00 +12°C° 0 mm 3 mps 743 mmHg 82%
    07:00 +14°C° 0 mm 3 mps 743 mmHg 74%
    08:00 +16°C° 0 mm 3 mps 743 mmHg 66%
    09:00 +17°C° 0 mm 4 mps 743 mmHg 60%
    10:00 +18°C° 0 mm 4 mps 743 mmHg 54%
    11:00 +19°C° 0 mm 4 mps 743 mmHg 48%
    12:00 +20°C° 0 mm 5 mps 743 mmHg 47%
    13:00 +20°C° 0 mm 5 mps 743 mmHg 47%
    14:00 +21°C° 0 mm 5 mps 743 mmHg 46%
    15:00 +20°C° 0 mm 5 mps 743 mmHg 49%
    16:00 +20°C° 0 mm 5 mps 743 mmHg 51%
    17:00 +20°C° 0 mm 5 mps 742 mmHg 54%
    18:00 +18°C° 0 mm 4 mps 743 mmHg 62%
    19:00 +16°C° 0 mm 3 mps 743 mmHg 69%
    20:00 +15°C° 0 mm 2 mps 743 mmHg 77%
    21:00 +14°C° 0 mm 2 mps 743 mmHg 79%
    22:00 +14°C° 0 mm 2 mps 743 mmHg 82%
    23:00 +13°C° 0 mm 2 mps 744 mmHg 85%

    Day after tomorrow, 27 May, Monday

    Time Temperature Precipitation Wind Pressure Humidity
    00:00 +13°C° 0 mm 2 mps 744 mmHg 87%
    01:00 +12°C° 0 mm 2 mps 744 mmHg 89%
    02:00 +10°C° 0 mm 2 mps 744 mmHg 91%
    03:00 +12°C° 0 mm 2 mps 744 mmHg 90%
    04:00 +12°C° 0 mm 2 mps 744 mmHg 90%
    05:00 +11°C° 0 mm 3 mps 744 mmHg 89%
    06:00 +13°C° 0 mm 3 mps 745 mmHg 81%
    07:00 +14°C° 0 mm 4 mps 745 mmHg 74%
    08:00 +17°C° 0 mm 4 mps 745 mmHg 66%
    09:00 +19°C° 0 mm 5 mps 745 mmHg 61%
    10:00 +20°C° 0 mm 5 mps 745 mmHg 57%
    11:00 +22°C° 0 mm 6 mps 745 mmHg 52%
    12:00 +23°C° 0.1 mm 6 mps 745 mmHg 52%
    13:00 +23°C° 0.1 mm 5 mps 745 mmHg 51%
    14:00 +25°C° 0.1 mm 5 mps 745 mmHg 51%
    15:00 +25°C° 0.1 mm 5 mps 745 mmHg 52%
    16:00 +25°C° 0.1 mm 4 mps 745 mmHg 52%
    17:00 +25°C° 0.1 mm 4 mps 745 mmHg 53%
    18:00 +22°C° 0.1 mm 3 mps 745 mmHg 62%
    19:00 +20°C° 0.1 mm 3 mps 745 mmHg 71%
    20:00 +18°C° 0.1 mm 2 mps 745 mmHg 81%
    21:00 +18°C° 0 mm 2 mps 745 mmHg 85%
    22:00 +17°C° 0 mm 2 mps 745 mmHg 88%
    23:00 +16°C° 0 mm 2 mps 745 mmHg 92%

    28 May, Tuesday

    Time Temperature Precipitation Wind Pressure Humidity
    00:00 +16°C° 0 mm 2 mps 745 mmHg 93%
    01:00 +16°C° 0 mm 3 mps 745 mmHg 95%
    02:00 +16°C° 0 mm 3 mps 745 mmHg 96%
    03:00 +16°C° 0 mm 2 mps 745 mmHg 95%
    04:00 +17°C° 0 mm 2 mps 745 mmHg 94%
    05:00 +17°C° 0 mm 2 mps 745 mmHg 92%
    06:00 +19°C° 0.2 mm 3 mps 745 mmHg 88%
    07:00 +20°C° 0.2 mm 3 mps 745 mmHg 83%
    08:00 +22°C° 0.2 mm 4 mps 745 mmHg 78%
    09:00 +23°C° 0.5 mm 4 mps 745 mmHg 75%
    10:00 +25°C° 0.5 mm 4 mps 745 mmHg 71%
    11:00 +26°C° 0.5 mm 4 mps 745 mmHg 68%
    12:00 +26°C° 1.1 mm 4 mps 744 mmHg 71%
    13:00 +25°C° 1.1 mm 4 mps 744 mmHg 74%
    14:00 +25°C° 1.1 mm 4 mps 744 mmHg 76%
    15:00 +25°C° 1 mm 4 mps 744 mmHg 76%
    16:00 +25°C° 1 mm 4 mps 744 mmHg 76%
    17:00 +25°C° 1 mm 4 mps 744 mmHg 76%
    18:00 +23°C° 0.1 mm 4 mps 744 mmHg 78%
    19:00 +21°C° 0.1 mm 3 mps 744 mmHg 79%
    20:00 +20°C° 0.1 mm 3 mps 744 mmHg 81%
    21:00 +19°C° 0 mm 3 mps 744 mmHg 82%
    22:00 +19°C° 0 mm 3 mps 744 mmHg 83%
    23:00 +19°C° 0 mm 4 mps 744 mmHg 83%

    29 May, Wednesday

    Time Temperature Precipitation Wind Pressure Humidity
    00:00 +18°C° 0 mm 4 mps 744 mmHg 84%
    01:00 +18°C° 0 mm 4 mps 744 mmHg 85%
    02:00 +18°C° 0 mm 4 mps 744 mmHg 86%
    03:00 +17°C° 0 mm 4 mps 744 mmHg 85%
    04:00 +16°C° 0 mm 5 mps 743 mmHg 84%
    05:00 +16°C° 0 mm 5 mps 743 mmHg 83%
    06:00 +17°C° 0 mm 5 mps 743 mmHg 78%
    07:00 +19°C° 0 mm 5 mps 743 mmHg 72%
    08:00 +20°C° 0 mm 5 mps 743 mmHg 66%
    09:00 +22°C° 0 mm 5 mps 744 mmHg 65%
    10:00 +23°C° 0 mm 5 mps 744 mmHg 63%
    11:00 +25°C° 0 mm 5 mps 744 mmHg 62%
    12:00 +26°C° 0 mm 5 mps 744 mmHg 59%
    13:00 +28°C° 0 mm 5 mps 744 mmHg 56%
    14:00 +29°C° 0 mm 5 mps 744 mmHg 54%
    15:00 +27°C° 2.1 mm 5 mps 744 mmHg 61%
    16:00 +26°C° 2.1 mm 4 mps 744 mmHg 69%
    17:00 +25°C° 2.1 mm 3 mps 744 mmHg 77%
    18:00 +23°C° 1.5 mm 2 mps 745 mmHg 81%
    19:00 +21°C° 1.5 mm 2 mps 745 mmHg 85%
    20:00 +20°C° 1.5 mm 1 mps 746 mmHg 89%
    21:00 +19°C° 0.4 mm 2 mps 746 mmHg 91%
    22:00 +18°C° 0.4 mm 3 mps 746 mmHg 93%
    23:00 +17°C° 0.4 mm 4 mps 747 mmHg 96%

    30 May, Thursday

    Time Temperature Precipitation Wind Pressure Humidity
    00:00 +15°C° 0.1 mm 4 mps 747 mmHg 95%
    01:00 +15°C° 0.1 mm 4 mps 748 mmHg 95%
    02:00 +14°C° 0.1 mm 4 mps 748 mmHg 94%
    03:00 +14°C° 0 mm 4 mps 749 mmHg 93%
    04:00 +13°C° 0 mm 4 mps 749 mmHg 92%
    05:00 +13°C° 0 mm 4 mps 750 mmHg 92%
    06:00 +13°C° 0 mm 4 mps 751 mmHg 87%
    07:00 +14°C° 0 mm 4 mps 751 mmHg 83%
    08:00 +14°C° 0 mm 5 mps 751 mmHg 79%
    09:00 +15°C° 0 mm 4 mps 752 mmHg 71%
    10:00 +18°C° 0 mm 4 mps 752 mmHg 63%
    11:00 +19°C° 0 mm 4 mps 752 mmHg 55%
    12:00 +20°C° 0 mm 4 mps 752 mmHg 53%
    13:00 +20°C° 0 mm 4 mps 752 mmHg 51%
    14:00 +20°C° 0 mm 4 mps 752 mmHg 48%
    15:00 +20°C° 0 mm 4 mps 752 mmHg 49%
    16:00 +20°C° 0 mm 3 mps 752 mmHg 49%
    17:00 +19°C° 0 mm 3 mps 752 mmHg 49%
    18:00 +18°C° 0 mm 3 mps 751 mmHg 55%
    19:00 +16°C° 0 mm 2 mps 751 mmHg 62%
    20:00 +14°C° 0 mm 2 mps 751 mmHg 68%
    21:00 +13°C° 0 mm 2 mps 751 mmHg 68%
    22:00 +12°C° 0 mm 2 mps 751 mmHg 69%
    23:00 +12°C° 0 mm 2 mps 752 mmHg 69%
    Show more